Probability
23 23 26 29 45 61 65 74 68 77 84 77 58 65 61 58 61 61 58 61 61 58 61 58 61 58 55 52 48 55 52 48 52 45 39 39 39 42 42 42 45 32 32
29 29 23 26 39 61 68 74 77 74 77 71 77 71 65 61 48 58 58 61 61 58 45 65 58 61 61 65 65 55 45 42 45 42 39 35 32 42 26 45 39 32 29
26 26 32 35 39 55 65 58 74 77 74 74 68 68 68 61 61 55 61 58 55 58 65 61 65 65 58 61 65 61 45 42 45 45 35 35 35 45 45 35 29 29 23
32 32 35 42 42 61 65 74 77 81 81 74 68 65 61 58 58 58 55 58 55 52 48 55 58 58 58 58 52 52 52 52 48 48 45 52 42 39 32 39 32 26 35
29 32 32 48 52 55 65 74 77 81 77 74 77 77 58 55 58 61 58 61 58 52 48 55 58 58 61 58 55 58 52 52 55 55 52 45 45 42 35 35 29 35 32
35 32 39 48 55 65 58 68 77 77 74 74 71 74 71 68 65 58 55 58 55 55 52 52 52 55 55 58 58 58 48 52 58 58 52 52 48 35 39 35 29 29 29
26 32 45 48 58 61 61 61 68 71 74 74 74 71 68 65 68 65 65 65 58 58 58 52 55 52 58 61 61 58 55 52 58 58 58 52 48 52 45 32 32 32 26
23 26 39 52 45 55 61 61 65 68 71 71 71 65 68 68 61 68 65 61 61 58 65 58 58 58 61 52 61 61 55 58 58 55 61 58 58 58 48 39 29 26 26
23 32 35 39 45 48 61 65 65 65 71 71 71 68 68 71 61 68 65 52 58 55 58 61 58 58 61 58 61 58 58 55 58 55 61 61 55 48 48 39 35 26 19
26 32 35 39 45 42 55 52 61 65 68 71 68 65 61 61 61 55 61 55 58 58 58 55 58 55 58 52 48 45 45 48 52 52 58 58 55 52 45 39 35 42 32
16 35 35 35 39 39 45 65 61 68 65 65 55 65 58 58 58 58 58 61 58 55 52 52 55 52 48 48 45 45 45 45 48 48 48 48 48 45 42 39 39 35 29
23 26 35 39 39 45 42 48 55 58 58 58 61 55 55 58 58 55 58 61 61 52 48 45 52 52 45 48 45 42 39 35 39 42 45 39 35 35 39 35 32 35 35
32 35 48 55 48 45 45 52 52 48 45 52 52 48 55 58 58 58 58 58 58 55 45 48 52 52 48 39 32 32 32 32 35 32 32 29 32 35 35 35 35 32 29
42 48 65 71 71 71 65 61 58 45 48 48 48 55 55 52 52 61 61 58 58 55 52 45 45 42 39 26 29 29 29 32 35 29 29 26 29 29 26 29 32 29 29
35 45 61 71 74 71 68 65 58 55 52 55 55 55 55 52 55 55 55 48 48 39 42 42 35 32 23 19 23 26 23 23 26 32 29 26 23 19 23 23 26 26 26
35 42 61 68 74 74 68 68 71 58 58 61 55 55 58 55 52 55 45 45 48 39 42 32 29 26 16 16 16 23 19 19 19 23 23 19 16 13 6 6 6 6 16
35 45 61 68 71 68 71 68 71 65 65 61 61 58 55 55 48 42 42 48 42 35 29 29 26 26 13 10 6 10 16 23 19 19 23 19 10 13 10 10 3 0 0
35 52 48 58 61 65 58 65 68 68 65 65 61 58 55 52 45 45 48 39 39 29 29 32 29 26 16 10 6 6 13 19 23 23 19 23 23 10 10 16 16 23 16
45 52 48 52 61 55 52 55 61 65 61 61 55 55 55 52 45 45 45 45 35 32 32 29 29 26 19 6 0 3 13 13 16 16 19 19 23 13 3 13 16 23 23
48 48 45 55 55 58 52 58 55 65 65 55 58 48 52 48 52 48 48 42 45 35 32 26 26 26 26 13 0 0 10 13 13 13 19 10 10 13 3 6 13 13 16
45 45 45 52 55 58 58 55 55 58 52 55 48 52 48 52 48 52 45 45 35 35 32 29 29 29 19 10 0 0 6 6 6 13 16 13 6 3 3 0 10 6 6
42 39 48 48 52 52 52 48 52 42 45 48 48 45 45 35 29 35 45 45 32 39 35 35 29 26 23 13 3 0 0 6 13 13 13 16 6 0 0 0 3 3 3
35 39 42 42 45 45 48 42 45 42 45 45 48 48 42 32 35 32 35 35 39 23 19 26 26 26 26 19 10 0 0 0 3 10 10 6 0 0 0 0 0 0 3
39 35 35 35 39 39 39 42 45 45 42 39 39 45 42 35 35 32 29 29 19 16 19 19 19 19 23 19 13 10 0 0 0 3 6 3 0 0 3 3 0 0 3
29 26 32 35 35 39 39 39 35 39 42 42 39 35 35 32 32 23 23 19 23 16 16 19 16 16 19 6 3 6 6 6 6 6 6 10 10 10 10 10 10 6 3
26 26 23 26 29 32 32 39 39 35 35 35 35 32 32 32 26 19 10 3 6 3 3 3 10 3 3 0 0 0 0 0 3 6 6 6 6 10 10 10 10 10 10
Height
5903 5902 5902 5901 5901 5900 5900 5899 5899 5898 5897 5896 5895 5895 5894 5893 5893 5892 5892 5891 5890 5889 5889 5889 5888 5888 5887 5887 5886 5885 5885 5885 5884 5883 5883 5882 5881 5880 5880 5879 5878 5877 5876
5904 5903 5902 5901 5901 5900 5900 5899 5899 5898 5898 5897 5896 5895 5895 5894 5893 5893 5892 5891 5890 5889 5889 5889 5888 5887 5887 5886 5885 5884 5883 5883 5882 5882 5881 5880 5880 5879 5878 5877 5876 5875 5874
5903 5903 5902 5901 5901 5900 5900 5899 5899 5898 5898 5897 5896 5896 5895 5894 5893 5893 5892 5891 5890 5889 5888 5888 5888 5887 5886 5885 5884 5883 5883 5882 5881 5880 5880 5879 5878 5877 5876 5875 5874 5873 5872
5902 5902 5901 5900 5900 5900 5900 5899 5899 5898 5898 5897 5896 5896 5895 5894 5893 5893 5892 5891 5890 5889 5888 5888 5887 5886 5886 5885 5883 5882 5881 5880 5879 5878 5877 5877 5876 5875 5874 5873 5872 5871 5869
5901 5901 5900 5900 5899 5899 5899 5899 5899 5898 5898 5897 5896 5895 5895 5894 5893 5892 5891 5890 5889 5889 5888 5887 5886 5885 5885 5884 5882 5881 5880 5879 5878 5877 5875 5874 5873 5872 5872 5871 5870 5868 5867
5900 5899 5899 5899 5898 5898 5898 5898 5898 5897 5897 5896 5895 5895 5894 5893 5892 5891 5891 5890 5888 5887 5887 5886 5885 5884 5883 5882 5880 5879 5878 5877 5876 5875 5874 5872 5871 5870 5869 5868 5867 5866 5865
5898 5898 5898 5897 5897 5897 5897 5897 5896 5896 5896 5895 5894 5893 5893 5892 5891 5890 5890 5888 5887 5886 5885 5885 5883 5882 5881 5880 5878 5877 5876 5875 5874 5873 5872 5871 5869 5868 5866 5865 5864 5863 5862
5897 5897 5896 5896 5895 5895 5895 5895 5895 5894 5894 5893 5892 5892 5891 5890 5889 5888 5887 5886 5886 5885 5884 5883 5882 5880 5879 5877 5876 5875 5874 5873 5872 5871 5869 5868 5867 5865 5864 5863 5861 5860 5859
5895 5895 5894 5894 5893 5893 5893 5893 5892 5892 5892 5891 5890 5890 5889 5888 5886 5885 5884 5884 5883 5882 5881 5880 5879 5878 5876 5875 5873 5872 5871 5870 5869 5868 5866 5865 5864 5863 5861 5859 5858 5857 5855
5892 5892 5892 5891 5891 5890 5890 5890 5890 5889 5889 5888 5888 5887 5886 5885 5883 5882 5881 5880 5880 5879 5878 5877 5876 5875 5873 5872 5870 5869 5868 5867 5865 5864 5863 5862 5861 5859 5858 5856 5855 5853 5851
5889 5889 5889 5888 5888 5887 5887 5887 5886 5886 5886 5885 5885 5884 5883 5882 5880 5878 5878 5877 5876 5876 5875 5874 5872 5871 5870 5868 5867 5866 5864 5863 5862 5861 5860 5858 5857 5855 5854 5853 5851 5849 5847
5886 5885 5885 5884 5884 5884 5883 5883 5883 5883 5882 5882 5882 5881 5880 5878 5876 5875 5874 5873 5873 5872 5871 5870 5869 5867 5866 5865 5863 5862 5860 5859 5858 5857 5855 5854 5853 5851 5850 5848 5847 5845 5843
5882 5881 5881 5880 5880 5880 5879 5879 5879 5879 5879 5878 5878 5877 5876 5874 5873 5872 5871 5870 5869 5868 5867 5866 5865 5864 5862 5860 5859 5858 5856 5855 5854 5852 5851 5850 5848 5847 5845 5844 5842 5840 5838
5877 5877 5877 5876 5876 5875 5875 5875 5875 5875 5874 5874 5873 5872 5871 5870 5869 5868 5867 5866 5865 5864 5863 5862 5860 5859 5858 5856 5855 5853 5851 5850 5849 5847 5846 5844 5843 5842 5840 5839 5837 5835 5833
5871 5871 5871 5871 5871 5871 5870 5870 5870 5870 5869 5869 5868 5867 5866 5865 5864 5863 5862 5861 5860 5859 5858 5857 5856 5854 5853 5851 5850 5848 5846 5845 5844 5842 5841 5839 5838 5836 5835 5833 5831 5829 5827
5865 5865 5866 5866 5866 5866 5865 5865 5865 5864 5864 5863 5863 5862 5860 5859 5859 5858 5857 5856 5855 5854 5853 5852 5851 5849 5848 5846 5844 5843 5841 5840 5838 5837 5835 5834 5832 5831 5829 5827 5825 5823 5821
5859 5860 5860 5860 5860 5860 5860 5860 5859 5859 5857 5857 5857 5855 5854 5853 5853 5852 5851 5851 5850 5849 5848 5846 5845 5844 5842 5841 5839 5837 5836 5834 5833 5831 5829 5828 5826 5824 5822 5820 5818 5816 5814
5853 5853 5853 5854 5854 5853 5853 5853 5852 5852 5851 5851 5850 5849 5848 5847 5847 5846 5845 5844 5843 5842 5841 5840 5839 5837 5836 5834 5833 5831 5829 5828 5827 5825 5823 5821 5819 5817 5815 5813 5812 5809 5807
5845 5846 5847 5847 5847 5847 5846 5846 5845 5845 5845 5844 5843 5842 5842 5841 5840 5839 5838 5838 5837 5835 5835 5833 5832 5831 5829 5828 5826 5824 5823 5821 5820 5818 5816 5814 5812 5810 5808 5806 5804 5802 5800
5838 5839 5840 5840 5840 5840 5839 5838 5838 5838 5838 5837 5836 5836 5835 5835 5834 5833 5832 5831 5830 5829 5827 5826 5825 5824 5822 5821 5819 5817 5816 5815 5813 5811 5809 5807 5805 5803 5800 5799 5796 5794 5792
5832 5832 5833 5833 5832 5832 5832 5831 5831 5831 5831 5830 5830 5829 5829 5828 5827 5826 5825 5824 5823 5822 5820 5819 5818 5817 5815 5814 5812 5810 5809 5807 5805 5803 5801 5799 5797 5795 5793 5790 5788 5786 5783
5825 5825 5825 5825 5825 5824 5824 5823 5824 5824 5823 5823 5823 5822 5822 5821 5820 5819 5818 5817 5816 5814 5813 5812 5811 5809 5808 5806 5804 5803 5801 5799 5797 5795 5793 5791 5789 5787 5784 5782 5780 5777 5775
5817 5817 5817 5817 5817 5817 5817 5817 5817 5816 5816 5816 5815 5815 5815 5814 5813 5811 5810 5809 5808 5807 5806 5804 5803 5802 5800 5798 5797 5795 5793 5791 5789 5787 5785 5782 5780 5778 5776 5773 5771 5768 5765
5808 5808 5809 5809 5809 5809 5809 5809 5809 5809 5809 5808 5808 5807 5807 5806 5805 5803 5802 5801 5800 5799 5797 5796 5795 5793 5792 5790 5788 5786 5784 5782 5780 5778 5776 5773 5771 5769 5767 5764 5761 5758 5756
5800 5800 5800 5800 5801 5801 5801 5801 5801 5801 5800 5800 5800 5799 5799 5797 5796 5795 5794 5793 5792 5790 5789 5788 5786 5785 5783 5782 5780 5778 5776 5773 5771 5768 5766 5764 5762 5759 5757 5754 5751 5749 5746
5791 5791 5791 5791 5792 5792 5792 5792 5792 5791 5791 5791 5791 5791 5790 5789 5788 5787 5786 5784 5783 5782 5780 5779 5777 5775 5774 5772 5770 5768 5766 5764 5761 5759 5757 5754 5751 5749 5747 5744 5742 5739 5736
Wind_Speed
6 5 5 5 5 5 5 6 7 6 7 7 7 6 6 5 5 6 6 6 5 5 4 4 5 6 6 6 6 7 7 8 9 9 9 10 10 10 10 10 11 11 12
6 5 5 5 5 5 6 6 6 7 7 7 7 6 6 6 6 6 6 6 6 5 6 6 5 6 6 7 7 7 8 8 8 9 9 9 10 10 10 10 11 12 12
6 6 6 6 6 6 5 5 6 7 7 7 7 7 7 6 6 6 7 7 7 6 6 7 7 7 7 7 7 8 9 9 9 10 10 10 10 11 11 11 12 12 12
8 7 7 7 7 6 5 5 5 6 7 7 7 7 7 7 7 7 7 7 7 7 7 7 8 8 8 8 8 9 9 10 9 10 11 12 12 12 12 12 12 12 12
8 8 7 7 7 7 6 5 6 6 7 7 8 8 8 8 9 8 7 8 8 7 7 8 8 8 9 9 10 10 10 10 10 11 12 12 13 13 13 12 12 13 13
9 8 8 8 8 7 6 7 7 7 8 9 9 9 9 9 10 9 9 9 9 8 8 9 9 9 9 10 10 10 10 11 11 12 12 13 13 13 13 13 13 13 13
10 9 9 9 8 8 8 8 8 9 9 9 10 10 11 11 11 10 11 11 11 10 10 10 10 10 11 11 11 11 11 11 12 12 13 13 13 13 14 13 13 13 13
11 10 9 9 9 9 9 9 10 11 11 11 11 12 13 13 12 12 12 12 12 12 12 12 12 12 12 11 12 12 12 12 13 13 14 14 14 14 14 14 14 14 15
12 11 11 11 11 11 11 11 12 12 13 13 13 14 15 15 14 14 14 14 14 14 14 14 14 14 14 14 13 14 13 14 14 14 14 15 15 15 15 16 16 16 16
14 13 13 13 12 12 12 13 14 14 14 15 15 15 15 16 17 17 17 15 15 15 15 16 15 15 15 16 15 15 15 15 15 15 15 15 16 17 17 17 18 18 17
15 15 14 14 13 14 14 15 15 15 16 16 16 16 17 18 18 18 17 17 17 17 17 17 17 16 17 17 17 17 17 17 18 17 17 17 17 18 18 19 19 19 18
17 16 16 16 15 15 15 15 16 16 16 17 17 17 18 18 19 19 18 18 17 17 18 18 17 17 18 18 19 19 19 19 19 19 18 18 19 19 19 19 20 20 20
18 18 18 18 17 17 17 17 17 17 17 18 18 19 19 19 19 19 19 18 18 18 18 19 19 19 20 20 20 20 20 20 20 21 21 20 20 20 20 20 20 21 21
20 21 20 20 20 20 20 19 19 19 19 20 20 20 20 21 20 20 20 19 19 19 19 20 21 21 21 22 22 22 22 21 21 21 21 21 21 21 21 21 22 22 22
23 22 21 21 21 21 21 20 20 21 21 21 21 21 22 22 22 21 21 21 20 20 20 20 21 21 22 22 23 23 22 22 22 22 22 21 21 22 22 23 23 24 24
23 22 23 23 23 23 22 22 22 22 22 23 23 23 23 22 22 22 21 21 20 21 22 22 23 23 23 23 23 23 22 22 22 22 23 23 23 23 24 25 25 26 26
26 25 24 24 24 24 24 24 24 24 24 24 24 25 24 24 24 24 24 23 23 23 23 23 23 23 23 24 24 24 23 23 23 23 24 24 25 25 26 26 26 27 27
27 26 24 25 25 25 26 26 26 26 26 25 26 25 25 25 25 26 25 24 24 24 24 24 23 24 24 24 24 24 24 25 25 25 25 25 25 26 27 27 27 28 28
28 26 25 25 26 26 27 27 27 27 26 27 27 26 26 25 25 26 25 25 25 24 24 25 25 25 24 25 25 25 26 26 26 26 26 26 27 27 28 28 28 28 29
28 27 27 27 27 28 28 28 29 29 28 27 26 27 26 26 26 26 26 26 27 27 26 26 26 26 25 25 26 26 26 27 27 27 27 27 28 28 29 29 29 29 30
28 28 28 28 29 28 28 28 29 29 28 27 26 27 28 27 27 27 28 28 27 27 27 27 27 27 27 27 27 27 27 27 27 28 28 29 29 30 30 30 30 31 31
30 29 29 29 29 29 29 29 29 29 29 29 27 28 28 28 28 28 28 29 28 28 27 27 27 28 28 29 29 29 28 29 29 29 30 30 30 31 31 32 32 32 32
30 30 30 30 30 30 30 30 30 30 30 30 29 28 28 29 29 29 29 29 29 29 29 29 29 30 30 30 30 29 30 30 30 30 31 31 32 32 33 33 34 34 34
30 30 30 31 31 30 30 31 31 30 30 30 30 29 29 29 29 29 29 29 29 30 30 30 30 31 30 30 30 30 31 32 31 32 32 32 33 33 34 34 34 34 34
31 31 31 32 32 32 32 31 32 32 31 30 30 30 30 30 30 29 29 30 30 30 30 31 31 31 31 31 31 31 32 33 33 33 33 33 34 34 34 35 35 35 34
31 32 32 32 32 33 32 32 32 32 32 31 31 31 30 30 30 30 31 30 31 31 31 31 32 32 32 33 33 33 34 34 34 34 34 34 35 36 35 35 35 35 35
Wind_Direction
351 352 353 355 358 0 4 5 3 3 5 4 5 7 4 4 5 2 0 357 347 333 333 322 307 304 313 314 307 305 301 295 296 301 304 305 305 302 302 304 308 309 308
334 334 335 336 339 344 348 353 355 355 354 355 358 360 354 350 355 1 1 359 351 345 340 342 329 317 315 319 315 311 307 300 301 303 306 309 310 312 311 312 309 307 308
315 322 322 325 326 330 337 344 347 346 346 347 351 351 351 349 348 350 353 353 348 340 338 347 337 329 320 321 318 316 314 310 307 306 308 310 307 305 309 311 313 313 310
305 306 308 311 314 320 325 332 335 338 338 341 341 341 341 341 340 339 342 343 339 336 333 338 337 332 326 322 324 319 316 313 310 309 311 310 306 304 304 308 314 314 313
305 303 300 303 306 311 311 315 319 326 327 328 330 331 334 333 331 332 336 335 331 334 335 334 332 323 322 323 323 323 321 316 314 313 314 315 314 311 310 308 311 312 311
300 303 299 296 296 296 299 303 306 313 315 317 319 320 323 325 327 329 328 323 322 328 331 330 327 321 318 318 319 320 321 318 316 317 319 323 322 317 313 310 309 310 310
292 296 296 290 291 290 292 297 298 301 306 310 313 313 313 315 318 319 318 316 314 318 322 323 322 319 316 314 313 313 315 315 316 317 321 322 324 320 315 312 311 312 312
286 286 289 289 287 288 288 291 294 296 299 303 306 309 308 306 306 308 312 312 311 314 315 317 317 316 315 312 310 309 309 311 312 314 315 317 320 322 319 314 311 310 310
286 286 285 287 285 287 288 288 289 293 296 298 300 302 302 302 301 305 306 308 305 305 308 310 312 313 313 312 309 307 306 307 310 311 311 313 315 317 317 315 314 313 311
283 283 285 286 288 286 286 288 287 289 291 293 296 298 299 301 299 299 301 303 300 298 301 304 305 307 308 311 308 306 306 305 306 307 309 310 311 311 311 313 312 310 310
283 283 284 284 283 285 286 287 285 286 289 291 294 295 297 300 302 302 302 299 298 297 299 301 300 300 301 303 304 304 304 303 303 302 303 304 306 307 308 309 310 309 308
283 283 282 283 284 285 286 286 285 283 286 289 290 292 295 297 300 301 302 300 298 297 297 299 300 299 300 302 302 302 302 302 300 300 300 301 302 304 305 306 306 307 306
276 277 280 282 284 285 285 285 285 284 284 287 289 291 292 294 298 300 299 299 298 297 297 297 298 299 300 301 301 300 300 300 299 300 299 299 300 302 303 304 304 304 303
273 274 277 280 282 283 283 283 285 285 284 285 287 290 291 291 293 296 296 297 297 297 296 297 297 297 297 298 298 299 299 298 298 299 300 298 299 300 300 301 302 302 302
273 272 274 278 280 281 281 281 282 284 283 284 286 289 289 290 290 292 293 294 294 294 295 296 297 298 298 298 298 300 301 300 298 298 298 297 298 299 299 300 300 300 300
270 272 273 274 277 279 279 278 280 282 284 284 285 287 288 287 287 289 290 291 291 292 293 294 295 296 296 298 298 300 298 299 298 297 297 296 296 298 299 299 299 299 299
269 270 272 274 276 276 277 277 278 280 283 284 285 285 286 286 285 285 287 288 289 290 292 292 292 293 293 294 296 298 296 297 299 297 296 295 295 295 295 296 297 298 299
265 267 270 274 275 277 276 276 277 278 279 281 283 283 285 286 287 287 288 288 289 289 291 291 291 290 292 292 294 293 294 294 296 297 295 296 296 294 294 294 296 297 298
264 265 269 273 275 276 278 277 277 278 278 279 280 281 283 285 287 290 289 288 289 289 289 289 289 290 292 292 292 292 292 293 294 294 296 296 295 295 294 294 295 296 296
265 265 268 271 274 276 277 277 277 278 278 279 280 282 281 283 286 287 289 290 290 290 290 290 290 290 291 291 291 292 294 293 292 293 294 294 294 295 295 295 295 295 295
268 267 268 270 272 273 274 277 277 277 278 278 278 278 279 281 283 285 288 290 290 289 289 289 290 290 291 292 293 293 294 294 294 294 294 293 293 293 293 294 295 295 295
267 267 268 269 270 272 274 275 276 276 276 278 277 276 277 279 281 284 287 288 288 289 289 290 290 292 293 293 293 294 295 295 295 295 294 294 293 292 293 293 295 295 295
269 268 268 268 269 271 273 275 275 275 276 277 277 277 278 279 281 283 285 286 288 289 289 289 290 291 293 293 294 294 295 295 296 295 294 293 293 292 293 293 294 294 293
269 269 268 268 268 269 271 273 274 276 276 277 277 278 279 280 281 283 284 285 287 288 288 289 290 291 291 292 292 293 294 294 294 295 295 294 293 292 292 293 293 293 293
268 268 267 268 269 269 271 272 274 275 275 275 276 278 280 281 281 281 282 284 286 286 287 287 288 289 290 291 292 292 293 294 294 294 294 293 294 293 293 293 293 293 292
268 269 269 269 269 270 271 271 271 272 273 273 275 278 279 281 282 282 282 283 284 284 285 286 288 289 290 291 292 292 293 293 293 293 293 294 295 294 293 293 293 293 293